Terminal Aerodrome Forecast
Issued by NWS Omaha/Valley, NE

Current Version | Previous Version | Text Only | Print | Product List | Glossary On
Versions: 1 2 3 4 5 6 7 8 9 10 11 12 13 14 15 16 17 18 19 20 21 22 23 24 25 26 27 28 29 30 31 32 33 34 35 36 37 38 39 40 41 42 43 44 45 46 47 48 49
874
FTUS43 KOAX 301006 AAA
TAFLNK
TAF AMD
KLNK 301006Z 3010/0106 03020G30KT 6SM -RA BR OVC010
      TEMPO 3010/3012 4SM -RA BR OVC008
     FM301200 02022G32KT 5SM -RA BR OVC008
     FM302000 02016G24KT 3SM -RA OVC008
     FM010200 34014G21KT 2SM -RA OVC005=

USA.gov is the U.S. government's official web portal to all federal, state and local government web resources and services.